Regional Weather Roundup
Issued by NWS

Home | Current Version | Previous Version | Text Only | Print | Product List | Glossary Off
Versions: 1 2 3 4 5 6 7 8 9 10 11 12 13 14 15 16 17 18 19 20 21 22 23 24 25 26 27 28 29 30 31 32 33 34 35 36 37 38 39 40 41 42 43 44 45 46 47 48 49 50

000
ASUS45 KPSR 271600
RWRAZ

PRELIMINARY ARIZONA REGIONAL HOURLY WEATHER ROUNDUP
NATIONAL WEATHER SERVICE PHOENIX AZ
900 AM MST SAT DEC 27 2014

NOTE: FAIR INDICATES FEW OR NO CLOUDS BELOW 12,000 FEET WITH NO
SIGNIFICANT WEATHER AND/OR OBSTRUCTIONS TO VISIBILITY.

AZZ001>003-036-271700-
NORTHWEST ARIZONA

CITY           SKY/WX    TMP DP  RH WIND       PRES   REMARKS
KINGMAN        SUNNY     29  15  56 E6        30.32R WCI  23
$$

AZZ004>008-015-016-018-271700-
NORTH CENTRAL ARIZONA

CITY           SKY/WX    TMP DP  RH WIND       PRES   REMARKS
GRAND CANYON   SUNNY     21  11  65 NE10      30.24R WCI  10
PRESCOTT       SUNNY     23  10  57 CALM      30.26R
FLAGSTAFF      NOT AVBL
PAYSON         SUNNY     28  12  50 NE13G18   30.25R WCI  18
PAGE           SUNNY     29   5  36 CALM      30.34R
$$

AZZ009>014-017-271700-
NORTHEAST ARIZONA

CITY           SKY/WX    TMP DP  RH WIND       PRES   REMARKS
WINSLOW        CLOUDY    26  14  60 NW7       30.30R WCI  18
SAINT JOHNS    SUNNY     19  13  77 NW5       30.22R WCI  12
WINDOW ROCK    SUNNY      7   3  84 CALM      30.22R
$$

AZZ023-271700-
GREATER PHOENIX AREA

CITY           SKY/WX    TMP DP  RH WIND       PRES   REMARKS
PHOENIX        SUNNY     40  26  57 CALM      30.27R
GLENDALE       SUNNY     39  23  52 NW3       30.29R
LUKE AFB       SUNNY     41  24  50 NW5       30.28R
DEER VALLEY    SUNNY     40  20  44 NE7       30.26R
SCOTTSDALE     SUNNY     36  24  62 CALM      30.28R
MESA-FALCON    SUNNY     37  21  52 N6        30.27R WCI  33
MESA-GATEWAY   SUNNY     34  25  69 CALM      30.29R
CHANDLER       SUNNY     36  27  69 CALM      30.29R
$$

AZZ027-028-271700-
SOUTHWEST MARICOPA COUNTY AND PINAL COUNTY

CITY           SKY/WX    TMP DP  RH WIND       PRES   REMARKS
CASA GRANDE    SUNNY     34  21  60 CALM      30.28R
$$

AZZ503-504-507>509-271700-
SOUTHEAST ARIZONA

CITY           SKY/WX    TMP DP  RH WIND       PRES   REMARKS
TUCSON         SUNNY     30  25  81 SE3       30.25R
DAVIS-MONTHAN  SUNNY     34  24  66 SW1       30.23R
RYAN FIELD       N/A     34  30  86 CALM      30.26R
NOGALES        SUNNY     28  19  69 S3        30.19R
SIERRA VISTA   SUNNY     34  14  43 VRB5      30.17R WCI  30
SAFFORD        SUNNY     32  22  66 CALM      30.22R
$$

AZZ020-021-025-026-031-271700-
SOUTHWEST ARIZONA

CITY           SKY/WX    TMP DP  RH WIND       PRES   REMARKS
YUMA           NOT AVBL
$$

CAZ031-033-041-043-047-048-061-271700-
SOUTHERN CALIFORNIA

CITY           SKY/WX    TMP DP  RH WIND       PRES   REMARKS
DOWNTOWN L.A.  SUNNY     41  26  55 CALM      30.30R
L.A. AIRPORT   SUNNY     45  24  43 CALM      30.30R
SAN DIEGO      MOSUNNY   47  23  38 CALM      30.30R
BURBANK        CLEAR     41  22  46 N3        30.28R
ONTARIO        SUNNY     52   9  17 NE14G20   30.27R
RIVERSIDE      SUNNY     50   9  19 E6        30.31R
PALM SPRINGS   SUNNY     52   8  17 NE13      30.39R
EL CENTRO NAS  SUNNY     46  20  35 W3        30.38R
IMPERIAL       SUNNY     49  19  30 NW9       30.37R
BLYTHE         SUNNY     47  12  24 N8        30.35R
$$

NVZ020-UTZ003-271700-
SOUTHERN NEVADA-UTAH

CITY           SKY/WX    TMP DP  RH WIND       PRES   REMARKS
LAS VEGAS      NOT AVBL
SALT LAKE CITY PTCLDY    19  12  74 SE10      30.36R WCI   7
$$

NMZ009-TXZ055-271700-
NEW MEXICO-WEST TEXAS

CITY           SKY/WX    TMP DP  RH WIND       PRES   REMARKS
ALBUQUERQUE    MOSUNNY   26  15  63 N7        30.24R WCI  18
EL PASO        CLOUDY    37  33  85 CALM      30.21R
$$


........................KEY........................
SKY/WX - SKY CONDITION/WEATHER
TMP    - TEMPERATURE IN FAHRENHEIT
DP     - DEW POINT IN FAHRENHEIT
RH     - RELATIVE HUMIDITY IN PERCENT
WIND   - DIRECTION AND SPEED IN MILES PER HOUR (MPH)
VRB    - VARIABLE WIND DIRECTION
PRES   - MEAN SEA LEVEL PRESSURE IN INCHES OF MERCURY
         F - FALLING PRESSURE   R - RISING PRESSURE
         S - STEADY PRESSURE
VSB    - VISIBILITY IN MILES
HX     - HEAT INDEX IN FAHRENHEIT
WCI    - WIND CHILL INDEX IN FAHRENHEIT
TC     - TEMPERATURE IN CELSIUS WHICH IS ALSO KNOWN AS
         TEMPERATURE IN CENTIGRADE
AFB    - AIR FORCE BASE
         LUKE AFB IS LUKE AIR FORCE BASE
         DAVIS-MONTHAN IS DAVIS-MONTHAN AIR FORCE BASE
NAS    - NAVAL AIR STATION
         EL CENTRO NAS IS EL CENTRO NAVAL AIR STATION
N/A    - NOT AVAILABLE



USA.gov is the U.S. government's official web portal to all federal, state and local government web resources and services.